Simultaneous Nadir Overpasses (SNOs) Predictions

Prediction of SNOs between GOES-15 and NPP Satellite Orbit:

Table of predicted SNOs for the next 14.0 days since TLE Epoch: 8/9/2014
Index Date Time (GOES-15) GOES-15 Lat,Lon NPP Lat,Lon Distance(km) Time Diff (sec)
1 08/09/2014 10:28:28 -0.25,-135.49 -0.65,-133.72 201.75 80
2 08/10/2014 22:47:48 0.26,-135.50 -0.53,-139.03 402.83 80
3 08/11/2014 22:31:45 0.26,-135.49 0.49,-134.50 112.59 80
4 08/13/2014 10:50:55 -0.26,-135.47 0.73,-139.77 491.20 80
5 08/14/2014 10:34:53 -0.26,-135.46 -0.29,-135.25 24.03 80
6 08/16/2014 22:35:30 0.27,-135.45 0.14,-136.03 66.48 80
7 08/17/2014 22:19:27 0.27,-135.43 1.17,-131.51 448.19 80
8 08/19/2014 10:38:38 -0.28,-135.40 0.04,-136.77 156.69 80
9 08/20/2014 10:22:35
